Year,Month,Day,Hour,Minute,Value (Times are PST for temperature in C)
2014,02,11,00,00,5.50
2014,02,11,00,01,5.50
2014,02,11,00,02,5.40
2014,02,11,00,03,5.30
2014,02,11,00,04,5.30
2014,02,11,00,05,5.30
2014,02,11,00,06,5.20
2014,02,11,00,07,5.10
2014,02,11,00,08,5.00
2014,02,11,00,09,5.00
2014,02,11,00,10,4.90
2014,02,11,00,11,4.90
2014,02,11,00,12,4.90
2014,02,11,00,13,4.90
2014,02,11,00,14,5.10
2014,02,11,00,15,5.50
2014,02,11,00,16,5.80
2014,02,11,00,17,6.00
2014,02,11,00,18,6.20
2014,02,11,00,19,6.40
2014,02,11,00,20,6.50
2014,02,11,00,21,6.60
2014,02,11,00,22,6.70
2014,02,11,00,23,6.70
2014,02,11,00,24,6.70
2014,02,11,00,25,6.60
2014,02,11,00,26,6.60
2014,02,11,00,27,6.50
2014,02,11,00,28,6.40
2014,02,11,00,29,6.40
2014,02,11,00,30,6.30
2014,02,11,00,31,6.20
2014,02,11,00,32,6.20
2014,02,11,00,33,6.30
2014,02,11,00,34,6.30
2014,02,11,00,35,6.30
2014,02,11,00,36,6.30
2014,02,11,00,37,6.30
2014,02,11,00,38,6.30
2014,02,11,00,39,6.20
2014,02,11,00,40,6.10
2014,02,11,00,41,6.10
2014,02,11,00,42,6.10
2014,02,11,00,43,6.10
2014,02,11,00,44,6.00
2014,02,11,00,45,6.00
2014,02,11,00,46,5.80
2014,02,11,00,47,5.80
2014,02,11,00,48,5.70
2014,02,11,00,49,5.70
2014,02,11,00,50,5.70
2014,02,11,00,51,5.70
2014,02,11,00,52,5.70
2014,02,11,00,53,5.60
2014,02,11,00,54,5.60
2014,02,11,00,55,5.60
2014,02,11,00,56,5.50
2014,02,11,00,57,5.40
2014,02,11,00,58,5.40
2014,02,11,00,59,5.40
2014,02,11,01,00,5.30
2014,02,11,01,01,5.20
2014,02,11,01,02,5.20
2014,02,11,01,03,5.20
2014,02,11,01,04,5.10
2014,02,11,01,05,5.10
2014,02,11,01,06,5.10
2014,02,11,01,07,5.10
2014,02,11,01,08,5.10
2014,02,11,01,09,5.00
2014,02,11,01,10,5.00
2014,02,11,01,11,4.90
2014,02,11,01,12,4.90
2014,02,11,01,13,4.90
2014,02,11,01,14,4.90
2014,02,11,01,15,4.90
2014,02,11,01,16,4.90
2014,02,11,01,17,4.90
2014,02,11,01,18,4.80
2014,02,11,01,19,4.80
2014,02,11,01,20,4.70
2014,02,11,01,21,4.70
2014,02,11,01,22,4.60
2014,02,11,01,23,4.60
2014,02,11,01,24,4.50
2014,02,11,01,25,4.50
2014,02,11,01,26,4.60
2014,02,11,01,27,4.60
2014,02,11,01,28,4.60
2014,02,11,01,29,4.60
2014,02,11,01,30,4.50
2014,02,11,01,31,4.50
2014,02,11,01,32,4.40
2014,02,11,01,33,4.40
2014,02,11,01,34,4.50
2014,02,11,01,35,4.50
2014,02,11,01,36,4.50
2014,02,11,01,37,4.60
2014,02,11,01,38,4.70
2014,02,11,01,39,4.80
2014,02,11,01,40,4.80
2014,02,11,01,41,4.80
2014,02,11,01,42,4.80
2014,02,11,01,43,4.80
2014,02,11,01,44,4.80
2014,02,11,01,45,4.70
2014,02,11,01,46,4.60
2014,02,11,01,47,4.70
2014,02,11,01,48,4.70
2014,02,11,01,49,4.80
2014,02,11,01,50,4.90
2014,02,11,01,51,4.90
2014,02,11,01,52,4.90
2014,02,11,01,53,4.80
2014,02,11,01,54,4.80
2014,02,11,01,55,4.80
2014,02,11,01,56,4.90
2014,02,11,01,57,4.90
2014,02,11,01,58,4.90
2014,02,11,01,59,4.80
2014,02,11,02,00,4.90
2014,02,11,02,01,5.00
2014,02,11,02,02,5.20
2014,02,11,02,03,5.40
2014,02,11,02,04,5.50
2014,02,11,02,05,5.50
2014,02,11,02,06,5.60
2014,02,11,02,07,5.70
2014,02,11,02,08,5.80
2014,02,11,02,09,5.70
2014,02,11,02,10,5.60
2014,02,11,02,11,5.60
2014,02,11,02,12,5.60
2014,02,11,02,13,5.80
2014,02,11,02,14,5.70
2014,02,11,02,15,5.70
2014,02,11,02,16,5.70
2014,02,11,02,17,5.70
2014,02,11,02,18,5.60
2014,02,11,02,19,5.40
2014,02,11,02,20,5.30
2014,02,11,02,21,5.10
2014,02,11,02,22,5.00
2014,02,11,02,23,4.90
2014,02,11,02,24,4.80
2014,02,11,02,25,4.70
2014,02,11,02,26,4.60
2014,02,11,02,27,4.50
2014,02,11,02,28,4.40
2014,02,11,02,29,4.30
2014,02,11,02,30,4.20
2014,02,11,02,31,4.20
2014,02,11,02,32,4.20
2014,02,11,02,33,4.10
2014,02,11,02,34,4.00
2014,02,11,02,35,4.00
2014,02,11,02,36,3.90
2014,02,11,02,37,3.80
2014,02,11,02,38,3.80
2014,02,11,02,39,3.80
2014,02,11,02,40,3.80
2014,02,11,02,41,3.90
2014,02,11,02,42,3.90
2014,02,11,02,43,3.90
2014,02,11,02,44,3.90
2014,02,11,02,45,3.80
2014,02,11,02,46,3.80
2014,02,11,02,47,3.80
2014,02,11,02,48,3.80
2014,02,11,02,49,3.80
2014,02,11,02,50,3.80
2014,02,11,02,51,3.90
2014,02,11,02,52,3.80
2014,02,11,02,53,3.80
2014,02,11,02,54,3.70
2014,02,11,02,55,3.60
2014,02,11,02,56,3.50
2014,02,11,02,57,3.50
2014,02,11,02,58,3.30
2014,02,11,02,59,3.20
2014,02,11,03,00,3.20
2014,02,11,03,01,3.20
2014,02,11,03,02,3.20
2014,02,11,03,03,3.20
2014,02,11,03,04,3.20
2014,02,11,03,05,3.10
2014,02,11,03,06,3.00
2014,02,11,03,07,2.90
2014,02,11,03,08,2.90
2014,02,11,03,09,2.90
2014,02,11,03,10,2.90
2014,02,11,03,11,2.90
2014,02,11,03,12,2.80
2014,02,11,03,13,2.80
2014,02,11,03,14,2.70
2014,02,11,03,15,2.70
2014,02,11,03,16,2.70
2014,02,11,03,17,2.70
2014,02,11,03,18,2.70
2014,02,11,03,19,2.70
2014,02,11,03,20,2.80
2014,02,11,03,21,2.80
2014,02,11,03,22,2.80
2014,02,11,03,23,2.80
2014,02,11,03,24,2.80
2014,02,11,03,25,2.80
2014,02,11,03,26,2.80
2014,02,11,03,27,2.80
2014,02,11,03,28,2.80
2014,02,11,03,29,2.70
2014,02,11,03,30,2.70
2014,02,11,03,31,2.70
2014,02,11,03,32,2.70
2014,02,11,03,33,2.60
2014,02,11,03,34,2.50
2014,02,11,03,35,2.50
2014,02,11,03,36,2.40
2014,02,11,03,37,2.40
2014,02,11,03,38,2.40
2014,02,11,03,39,2.40
2014,02,11,03,40,2.40
2014,02,11,03,41,2.30
2014,02,11,03,42,2.30
2014,02,11,03,43,2.30
2014,02,11,03,44,2.20
2014,02,11,03,45,2.20
2014,02,11,03,46,2.20
2014,02,11,03,47,2.20
2014,02,11,03,48,2.10
2014,02,11,03,49,2.10
2014,02,11,03,50,2.00
2014,02,11,03,51,2.00
2014,02,11,03,52,2.10
2014,02,11,03,53,2.10
2014,02,11,03,54,2.10
2014,02,11,03,55,2.10
2014,02,11,03,56,2.10
2014,02,11,03,57,2.00
2014,02,11,03,58,1.90
2014,02,11,03,59,1.90
2014,02,11,04,00,2.00
2014,02,11,04,01,2.10
2014,02,11,04,02,2.10
2014,02,11,04,03,2.10
2014,02,11,04,04,2.10
2014,02,11,04,05,2.20
2014,02,11,04,06,2.20
2014,02,11,04,07,2.30
2014,02,11,04,08,2.30
2014,02,11,04,09,2.30
2014,02,11,04,10,2.30
2014,02,11,04,11,2.20
2014,02,11,04,12,2.20
2014,02,11,04,13,2.10
2014,02,11,04,14,2.00
2014,02,11,04,15,2.00
2014,02,11,04,16,2.00
2014,02,11,04,17,2.00
2014,02,11,04,18,2.10
2014,02,11,04,19,2.20
2014,02,11,04,20,2.20
2014,02,11,04,21,2.20
2014,02,11,04,22,2.20
2014,02,11,04,23,2.20
2014,02,11,04,24,2.10
2014,02,11,04,25,2.00
2014,02,11,04,26,2.10
2014,02,11,04,27,2.00
2014,02,11,04,28,2.00
2014,02,11,04,29,1.90
2014,02,11,04,30,1.90
2014,02,11,04,31,1.90
2014,02,11,04,32,2.00
2014,02,11,04,33,2.00
2014,02,11,04,34,1.90
2014,02,11,04,35,2.00
2014,02,11,04,36,2.00
2014,02,11,04,37,1.90
2014,02,11,04,38,2.00
2014,02,11,04,39,2.00
2014,02,11,04,40,1.90
2014,02,11,04,41,1.90
2014,02,11,04,42,1.80
2014,02,11,04,43,1.80
2014,02,11,04,44,1.70
2014,02,11,04,45,1.70
2014,02,11,04,46,1.70
2014,02,11,04,47,1.80
2014,02,11,04,48,1.90
2014,02,11,04,49,2.00
2014,02,11,04,50,2.00
2014,02,11,04,51,2.10
2014,02,11,04,52,2.10
2014,02,11,04,53,2.20
2014,02,11,04,54,2.20
2014,02,11,04,55,2.20
2014,02,11,04,56,2.10
2014,02,11,04,57,2.10
2014,02,11,04,58,2.20
2014,02,11,04,59,2.20
2014,02,11,05,00,2.20
2014,02,11,05,01,2.30
2014,02,11,05,02,2.20
2014,02,11,05,03,2.20
2014,02,11,05,04,2.20
2014,02,11,05,05,2.10
2014,02,11,05,06,2.00
2014,02,11,05,07,2.00
2014,02,11,05,08,2.10
2014,02,11,05,09,2.10
2014,02,11,05,10,2.10
2014,02,11,05,11,2.10
2014,02,11,05,12,2.00
2014,02,11,05,13,2.00
2014,02,11,05,14,1.90
2014,02,11,05,15,1.80
2014,02,11,05,16,1.80
2014,02,11,05,17,1.80
2014,02,11,05,18,1.80
2014,02,11,05,19,1.80
2014,02,11,05,20,1.90
2014,02,11,05,21,1.90
2014,02,11,05,22,1.80
2014,02,11,05,23,1.80
2014,02,11,05,24,1.80
2014,02,11,05,25,1.80
2014,02,11,05,26,1.80
2014,02,11,05,27,1.80
2014,02,11,05,28,1.80
2014,02,11,05,29,1.70
2014,02,11,05,30,1.60
2014,02,11,05,31,1.60
2014,02,11,05,32,1.60
2014,02,11,05,33,1.60
2014,02,11,05,34,1.50
2014,02,11,05,35,1.50
2014,02,11,05,36,1.60
2014,02,11,05,37,1.70
2014,02,11,05,38,1.70
2014,02,11,05,39,1.80
2014,02,11,05,40,1.70
2014,02,11,05,41,1.70
2014,02,11,05,42,1.70
2014,02,11,05,43,1.60
2014,02,11,05,44,1.70
2014,02,11,05,45,1.70
2014,02,11,05,46,1.60
2014,02,11,05,47,1.60
2014,02,11,05,48,1.50
2014,02,11,05,49,1.40
2014,02,11,05,50,1.30
2014,02,11,05,51,1.30
2014,02,11,05,52,1.30
2014,02,11,05,53,1.30
2014,02,11,05,54,1.30
2014,02,11,05,55,1.30
2014,02,11,05,56,1.30
2014,02,11,05,57,1.30
2014,02,11,05,58,1.30
2014,02,11,05,59,1.30
2014,02,11,06,00,1.40
2014,02,11,06,01,1.40
2014,02,11,06,02,1.30
2014,02,11,06,03,1.30
2014,02,11,06,04,1.30
2014,02,11,06,05,1.30
2014,02,11,06,06,1.30
2014,02,11,06,07,1.30
2014,02,11,06,08,1.30
2014,02,11,06,09,1.30
2014,02,11,06,10,1.30
2014,02,11,06,11,1.30
2014,02,11,06,12,1.30
2014,02,11,06,13,1.30
2014,02,11,06,14,1.30
2014,02,11,06,15,1.30
2014,02,11,06,16,1.30
2014,02,11,06,17,1.30
2014,02,11,06,18,1.30
2014,02,11,06,19,1.30
2014,02,11,06,20,1.30
2014,02,11,06,21,1.30
2014,02,11,06,22,1.30
2014,02,11,06,23,1.30
2014,02,11,06,24,1.30
2014,02,11,06,25,1.30
2014,02,11,06,26,1.30
2014,02,11,06,27,1.30
2014,02,11,06,28,1.30
2014,02,11,06,29,1.30
2014,02,11,06,30,1.30
2014,02,11,06,31,1.30
2014,02,11,06,32,1.30
2014,02,11,06,33,1.30
2014,02,11,06,34,1.30
2014,02,11,06,35,1.30
2014,02,11,06,36,1.50
2014,02,11,06,37,1.50
2014,02,11,06,38,1.40
2014,02,11,06,39,1.30
2014,02,11,06,40,1.30
2014,02,11,06,41,1.40
2014,02,11,06,42,1.50
2014,02,11,06,43,1.60
2014,02,11,06,44,1.60
2014,02,11,06,45,1.50
2014,02,11,06,46,1.40
2014,02,11,06,47,1.40
2014,02,11,06,48,1.40
2014,02,11,06,49,1.40
2014,02,11,06,50,1.30
2014,02,11,06,51,1.30
2014,02,11,06,52,1.30
2014,02,11,06,53,1.20
2014,02,11,06,54,1.20
2014,02,11,06,55,1.20
2014,02,11,06,56,1.10
2014,02,11,06,57,1.10
2014,02,11,06,58,1.00
2014,02,11,06,59,0.90
2014,02,11,07,00,0.80
2014,02,11,07,01,0.80
2014,02,11,07,02,0.80
2014,02,11,07,03,0.80
2014,02,11,07,04,0.80
2014,02,11,07,05,0.80
2014,02,11,07,06,0.80
2014,02,11,07,07,0.90
2014,02,11,07,08,0.90
2014,02,11,07,09,1.00
2014,02,11,07,10,1.00
2014,02,11,07,11,1.00
2014,02,11,07,12,1.00
2014,02,11,07,13,1.00
2014,02,11,07,14,1.10
2014,02,11,07,15,1.10
2014,02,11,07,16,1.10
2014,02,11,07,17,1.10
2014,02,11,07,18,1.10
2014,02,11,07,19,1.10
2014,02,11,07,20,0.90
2014,02,11,07,21,0.90
2014,02,11,07,22,0.90
2014,02,11,07,23,0.80
2014,02,11,07,24,0.90
2014,02,11,07,25,0.90
2014,02,11,07,26,0.90
2014,02,11,07,27,0.90
2014,02,11,07,28,0.90
2014,02,11,07,29,0.80
2014,02,11,07,30,0.80
2014,02,11,07,31,0.80
2014,02,11,07,32,0.80
2014,02,11,07,33,0.80
2014,02,11,07,34,0.80
2014,02,11,07,35,0.80
2014,02,11,07,36,0.80
2014,02,11,07,37,0.90
2014,02,11,07,38,1.00
2014,02,11,07,39,1.10
2014,02,11,07,40,1.10
2014,02,11,07,41,1.20
2014,02,11,07,42,1.20
2014,02,11,07,43,1.20
2014,02,11,07,44,1.20
2014,02,11,07,45,1.20
2014,02,11,07,46,1.30
2014,02,11,07,47,1.20
2014,02,11,07,48,1.20
2014,02,11,07,49,1.20
2014,02,11,07,50,1.20
2014,02,11,07,51,1.10
2014,02,11,07,52,1.00
2014,02,11,07,53,0.90
2014,02,11,07,54,0.80
2014,02,11,07,55,0.80
2014,02,11,07,56,0.80
2014,02,11,07,57,0.80
2014,02,11,07,58,0.80
2014,02,11,07,59,0.80
2014,02,11,08,00,0.80
2014,02,11,08,01,0.80
2014,02,11,08,02,0.80
2014,02,11,08,03,0.70
2014,02,11,08,04,0.80
2014,02,11,08,05,0.90
2014,02,11,08,06,0.90
2014,02,11,08,07,1.00
2014,02,11,08,08,1.10
2014,02,11,08,09,1.20
2014,02,11,08,10,1.30
2014,02,11,08,11,1.30
2014,02,11,08,12,1.30
2014,02,11,08,13,1.30
2014,02,11,08,14,1.30
2014,02,11,08,15,1.30
2014,02,11,08,16,1.40
2014,02,11,08,17,1.40
2014,02,11,08,18,1.50
2014,02,11,08,19,1.40
2014,02,11,08,20,1.40
2014,02,11,08,21,1.50
2014,02,11,08,22,1.50
2014,02,11,08,23,1.50
2014,02,11,08,24,1.50
2014,02,11,08,25,1.40
2014,02,11,08,26,1.30
2014,02,11,08,27,1.30
2014,02,11,08,28,1.30
2014,02,11,08,29,1.30
2014,02,11,08,30,1.30
2014,02,11,08,31,1.30
2014,02,11,08,32,1.30
2014,02,11,08,33,1.30
2014,02,11,08,34,1.30
2014,02,11,08,35,1.40
2014,02,11,08,36,1.50
2014,02,11,08,37,1.60
2014,02,11,08,38,1.80
2014,02,11,08,39,1.90
2014,02,11,08,40,2.00
2014,02,11,08,41,2.00
2014,02,11,08,42,2.00
2014,02,11,08,43,2.00
2014,02,11,08,44,2.00
2014,02,11,08,45,2.10
2014,02,11,08,46,2.10
2014,02,11,08,47,2.20
2014,02,11,08,48,2.20
2014,02,11,08,49,2.20
2014,02,11,08,50,2.30
2014,02,11,08,51,2.30
2014,02,11,08,52,2.20
2014,02,11,08,53,2.20
2014,02,11,08,54,2.30
2014,02,11,08,55,2.30
2014,02,11,08,56,2.30
2014,02,11,08,57,2.40
2014,02,11,08,58,2.40
2014,02,11,08,59,2.50
2014,02,11,09,00,2.50
2014,02,11,09,01,2.50
2014,02,11,09,02,2.50
2014,02,11,09,03,2.40
2014,02,11,09,04,2.40
2014,02,11,09,05,2.30
2014,02,11,09,06,2.30
2014,02,11,09,07,2.30
2014,02,11,09,08,2.30
2014,02,11,09,09,2.30
2014,02,11,09,10,2.30
2014,02,11,09,11,2.30
2014,02,11,09,12,2.30
2014,02,11,09,13,2.30
2014,02,11,09,14,2.30
2014,02,11,09,15,2.30
2014,02,11,09,16,2.30
2014,02,11,09,17,2.30
2014,02,11,09,18,2.20
2014,02,11,09,19,2.20
2014,02,11,09,20,2.20
2014,02,11,09,21,2.20
2014,02,11,09,22,2.30
2014,02,11,09,23,2.40
2014,02,11,09,24,2.50
2014,02,11,09,25,2.50
2014,02,11,09,26,2.60
2014,02,11,09,27,2.60
2014,02,11,09,28,2.60
2014,02,11,09,29,2.60
2014,02,11,09,30,2.60
2014,02,11,09,31,2.70
2014,02,11,09,32,2.70
2014,02,11,09,33,2.70
2014,02,11,09,34,2.70
2014,02,11,09,35,2.80
2014,02,11,09,36,2.80
2014,02,11,09,37,2.90
2014,02,11,09,38,3.00
2014,02,11,09,39,3.10
2014,02,11,09,40,3.10
2014,02,11,09,41,3.10
2014,02,11,09,42,3.00
2014,02,11,09,43,2.90
2014,02,11,09,44,2.90
2014,02,11,09,45,2.90
2014,02,11,09,46,3.00
2014,02,11,09,47,3.00
2014,02,11,09,48,3.00
2014,02,11,09,49,3.10
2014,02,11,09,50,3.30
2014,02,11,09,51,3.50
2014,02,11,09,52,3.50
2014,02,11,09,53,3.50
2014,02,11,09,54,3.50
2014,02,11,09,55,3.50
2014,02,11,09,56,3.40
2014,02,11,09,57,3.40
2014,02,11,09,58,3.40
2014,02,11,09,59,3.40
2014,02,11,10,00,3.50
2014,02,11,10,01,3.50
2014,02,11,10,02,3.50
2014,02,11,10,03,3.60
2014,02,11,10,04,3.70
2014,02,11,10,05,3.70
2014,02,11,10,06,3.80
2014,02,11,10,07,3.90
2014,02,11,10,08,3.90
2014,02,11,10,09,4.00
2014,02,11,10,10,4.00
2014,02,11,10,11,4.00
2014,02,11,10,12,4.10
2014,02,11,10,13,4.10
2014,02,11,10,14,4.10
2014,02,11,10,15,4.20
2014,02,11,10,16,4.20
2014,02,11,10,17,4.30
2014,02,11,10,18,4.30
2014,02,11,10,19,4.40
2014,02,11,10,20,4.40
2014,02,11,10,21,4.50
2014,02,11,10,22,4.50
2014,02,11,10,23,4.60
2014,02,11,10,24,4.70
2014,02,11,10,25,4.70
2014,02,11,10,26,4.80
2014,02,11,10,27,4.80
2014,02,11,10,28,4.80
2014,02,11,10,29,4.90
2014,02,11,10,30,4.90
2014,02,11,10,31,4.90
2014,02,11,10,32,5.00
2014,02,11,10,33,5.10
2014,02,11,10,34,5.10
2014,02,11,10,35,5.10
2014,02,11,10,36,5.20
2014,02,11,10,37,5.30
2014,02,11,10,38,5.30
2014,02,11,10,39,5.30
2014,02,11,10,40,5.40
2014,02,11,10,41,5.40
2014,02,11,10,42,5.50
2014,02,11,10,43,5.50
2014,02,11,10,44,5.60
2014,02,11,10,45,5.60
2014,02,11,10,46,5.60
2014,02,11,10,47,5.70
2014,02,11,10,48,5.70
2014,02,11,10,49,5.70
2014,02,11,10,50,5.80
2014,02,11,10,51,5.80
2014,02,11,10,52,5.90
2014,02,11,10,53,5.90
2014,02,11,10,54,5.90
2014,02,11,10,55,6.00
2014,02,11,10,56,6.00
2014,02,11,10,57,6.10
2014,02,11,10,58,6.10
2014,02,11,10,59,6.20
2014,02,11,11,00,6.20
2014,02,11,11,01,6.20
2014,02,11,11,02,6.20
2014,02,11,11,03,6.30
2014,02,11,11,04,6.30
2014,02,11,11,05,6.30
2014,02,11,11,06,6.40
2014,02,11,11,07,6.40
2014,02,11,11,08,6.50
2014,02,11,11,09,6.60
2014,02,11,11,10,6.70
2014,02,11,11,11,6.70
2014,02,11,11,12,6.80
2014,02,11,11,13,6.80
2014,02,11,11,14,6.80
2014,02,11,11,15,6.90
2014,02,11,11,16,6.90
2014,02,11,11,17,6.90
2014,02,11,11,18,6.90
2014,02,11,11,19,6.90
2014,02,11,11,20,7.00
2014,02,11,11,21,7.00
2014,02,11,11,22,7.10
2014,02,11,11,23,7.20
2014,02,11,11,24,7.20
2014,02,11,11,25,7.20
2014,02,11,11,26,7.20
2014,02,11,11,27,7.20
2014,02,11,11,28,7.20
2014,02,11,11,29,7.20
2014,02,11,11,30,7.20
2014,02,11,11,31,7.20
2014,02,11,11,32,7.30
2014,02,11,11,33,7.30
2014,02,11,11,34,7.30
2014,02,11,11,35,7.40
2014,02,11,11,36,7.40
2014,02,11,11,37,7.40
2014,02,11,11,38,7.50
2014,02,11,11,39,7.50
2014,02,11,11,40,7.60
2014,02,11,11,41,7.60
2014,02,11,11,42,7.60
2014,02,11,11,43,7.70
2014,02,11,11,44,7.70
2014,02,11,11,45,7.70
2014,02,11,11,46,7.70
2014,02,11,11,47,7.70
2014,02,11,11,48,7.80
2014,02,11,11,49,7.80
2014,02,11,11,50,7.80
2014,02,11,11,51,7.80
2014,02,11,11,52,7.90
2014,02,11,11,53,7.90
2014,02,11,11,54,7.90
2014,02,11,11,55,7.90
2014,02,11,11,56,7.90
2014,02,11,11,57,7.90
2014,02,11,11,58,8.00
2014,02,11,11,59,8.00
2014,02,11,12,00,8.00
2014,02,11,12,01,8.00
2014,02,11,12,02,8.10
2014,02,11,12,03,8.10
2014,02,11,12,04,8.10
2014,02,11,12,05,8.10
2014,02,11,12,06,8.10
2014,02,11,12,07,8.10
2014,02,11,12,08,8.10
2014,02,11,12,09,8.10
2014,02,11,12,10,8.10
2014,02,11,12,11,8.10
2014,02,11,12,12,8.10
2014,02,11,12,13,8.20
2014,02,11,12,14,8.20
2014,02,11,12,15,8.20
2014,02,11,12,16,8.20
2014,02,11,12,17,8.20
2014,02,11,12,18,8.20
2014,02,11,12,19,8.20
2014,02,11,12,20,8.20
2014,02,11,12,21,8.20
2014,02,11,12,22,8.20
2014,02,11,12,23,8.30
2014,02,11,12,24,8.30
2014,02,11,12,25,8.30
2014,02,11,12,26,8.30
2014,02,11,12,27,8.30
2014,02,11,12,28,8.30
2014,02,11,12,29,8.30
2014,02,11,12,30,8.30
2014,02,11,12,31,8.30
2014,02,11,12,32,8.30
2014,02,11,12,33,8.30
2014,02,11,12,34,8.30
2014,02,11,12,35,8.30
2014,02,11,12,36,8.30
2014,02,11,12,37,8.30
2014,02,11,12,38,8.30
2014,02,11,12,39,8.40
2014,02,11,12,40,8.40
2014,02,11,12,41,8.40
2014,02,11,12,42,8.40
2014,02,11,12,43,8.40
2014,02,11,12,44,8.40
2014,02,11,12,45,8.40
2014,02,11,12,46,8.40
2014,02,11,12,47,8.40
2014,02,11,12,48,8.40
2014,02,11,12,49,8.40
2014,02,11,12,50,8.50
2014,02,11,12,51,8.50
2014,02,11,12,52,8.50
2014,02,11,12,53,8.50
2014,02,11,12,54,8.60
2014,02,11,12,55,8.60
2014,02,11,12,56,8.60
2014,02,11,12,57,8.60
2014,02,11,12,58,8.60
2014,02,11,12,59,8.60
2014,02,11,13,00,8.70
2014,02,11,13,01,8.70
2014,02,11,13,02,8.70
2014,02,11,13,03,8.70
2014,02,11,13,04,8.70
2014,02,11,13,05,8.70
2014,02,11,13,06,8.70
2014,02,11,13,07,8.70
2014,02,11,13,08,8.70
2014,02,11,13,09,8.70
2014,02,11,13,10,8.70
2014,02,11,13,11,8.70
2014,02,11,13,12,8.70
2014,02,11,13,13,8.70
2014,02,11,13,14,8.70
2014,02,11,13,15,8.80
2014,02,11,13,16,8.80
2014,02,11,13,17,8.80
2014,02,11,13,18,8.80
2014,02,11,13,19,8.80
2014,02,11,13,20,8.80
2014,02,11,13,21,8.80
2014,02,11,13,22,8.80
2014,02,11,13,23,8.90
2014,02,11,13,24,8.90
2014,02,11,13,25,8.90
2014,02,11,13,26,8.90
2014,02,11,13,27,8.90
2014,02,11,13,28,8.90
2014,02,11,13,29,8.90
2014,02,11,13,30,8.90
2014,02,11,13,31,8.90
2014,02,11,13,32,8.90
2014,02,11,13,33,8.90
2014,02,11,13,34,8.90
2014,02,11,13,35,8.90
2014,02,11,13,36,8.90
2014,02,11,13,37,8.90
2014,02,11,13,38,8.90
2014,02,11,13,39,8.90
2014,02,11,13,40,8.90
2014,02,11,13,41,8.90
2014,02,11,13,42,8.90
2014,02,11,13,43,8.90
2014,02,11,13,44,8.90
2014,02,11,13,45,8.90
2014,02,11,13,46,8.90
2014,02,11,13,47,8.90
2014,02,11,13,48,8.90
2014,02,11,13,49,8.90
2014,02,11,13,50,8.90
2014,02,11,13,51,8.90
2014,02,11,13,52,8.90
2014,02,11,13,53,8.90
2014,02,11,13,54,8.90
2014,02,11,13,55,8.90
2014,02,11,13,56,8.90
2014,02,11,13,57,9.00
2014,02,11,13,58,9.00
2014,02,11,13,59,9.00
2014,02,11,14,00,9.00
2014,02,11,14,01,9.00
2014,02,11,14,02,9.00
2014,02,11,14,03,8.90
2014,02,11,14,04,8.90
2014,02,11,14,05,8.90
2014,02,11,14,06,8.90
2014,02,11,14,07,8.90
2014,02,11,14,08,8.90
2014,02,11,14,09,8.90
2014,02,11,14,10,8.90
2014,02,11,14,11,8.90
2014,02,11,14,12,8.90
2014,02,11,14,13,8.90
2014,02,11,14,14,8.90
2014,02,11,14,15,8.90
2014,02,11,14,16,8.90
2014,02,11,14,17,8.90
2014,02,11,14,18,8.90
2014,02,11,14,19,8.90
2014,02,11,14,20,8.90
2014,02,11,14,21,8.90
2014,02,11,14,22,8.90
2014,02,11,14,23,8.90
2014,02,11,14,24,8.90
2014,02,11,14,25,8.90
2014,02,11,14,26,8.90
2014,02,11,14,27,8.90
2014,02,11,14,28,8.90
2014,02,11,14,29,8.90
2014,02,11,14,30,8.90
2014,02,11,14,31,8.90
2014,02,11,14,32,8.90
2014,02,11,14,33,8.90
2014,02,11,14,34,8.90
2014,02,11,14,35,9.00
2014,02,11,14,36,9.00
2014,02,11,14,37,9.00
2014,02,11,14,38,8.90
2014,02,11,14,39,8.90
2014,02,11,14,40,8.90
2014,02,11,14,41,8.90
2014,02,11,14,42,9.00
2014,02,11,14,43,9.00
2014,02,11,14,44,9.00
2014,02,11,14,45,9.00
2014,02,11,14,46,9.00
2014,02,11,14,47,9.00
2014,02,11,14,48,9.10
2014,02,11,14,49,9.00
2014,02,11,14,50,9.10
2014,02,11,14,51,9.10
2014,02,11,14,52,9.10
2014,02,11,14,53,9.10
2014,02,11,14,54,9.00
2014,02,11,14,55,9.00
2014,02,11,14,56,9.00
2014,02,11,14,57,9.00
2014,02,11,14,58,9.00
2014,02,11,14,59,9.00
2014,02,11,15,00,9.10
2014,02,11,15,01,9.10
2014,02,11,15,02,9.10
2014,02,11,15,03,9.10
2014,02,11,15,04,9.10
2014,02,11,15,05,9.10
2014,02,11,15,06,9.10
2014,02,11,15,07,9.10
2014,02,11,15,08,9.10
2014,02,11,15,09,9.10
2014,02,11,15,10,9.10
2014,02,11,15,11,9.10
2014,02,11,15,12,9.20
2014,02,11,15,13,9.20
2014,02,11,15,14,9.20
2014,02,11,15,15,9.20
2014,02,11,15,16,9.20
2014,02,11,15,17,9.20
2014,02,11,15,18,9.20
2014,02,11,15,19,9.20
2014,02,11,15,20,9.10
2014,02,11,15,21,9.10
2014,02,11,15,22,9.10
2014,02,11,15,23,9.00
2014,02,11,15,24,9.00
2014,02,11,15,25,9.00
2014,02,11,15,26,8.90
2014,02,11,15,27,8.90
2014,02,11,15,28,8.90
2014,02,11,15,29,8.80
2014,02,11,15,30,8.80
2014,02,11,15,31,8.80
2014,02,11,15,32,8.80
2014,02,11,15,33,8.80
2014,02,11,15,34,8.80
2014,02,11,15,35,8.80
2014,02,11,15,36,8.70
2014,02,11,15,37,8.70
2014,02,11,15,38,8.70
2014,02,11,15,39,8.60
2014,02,11,15,40,8.50
2014,02,11,15,41,8.40
2014,02,11,15,42,8.40
2014,02,11,15,43,8.30
2014,02,11,15,44,8.30
2014,02,11,15,45,8.30
2014,02,11,15,46,8.30
2014,02,11,15,47,8.20
2014,02,11,15,48,8.20
2014,02,11,15,49,8.20
2014,02,11,15,50,8.20
2014,02,11,15,51,8.10
2014,02,11,15,52,8.10
2014,02,11,15,53,8.10
2014,02,11,15,54,8.10
2014,02,11,15,55,8.10
2014,02,11,15,56,8.10
2014,02,11,15,57,8.10
2014,02,11,15,58,8.00
2014,02,11,15,59,8.00
2014,02,11,16,00,8.00
2014,02,11,16,01,8.00
2014,02,11,16,02,8.00
2014,02,11,16,03,7.90
2014,02,11,16,04,7.90
2014,02,11,16,05,7.90
2014,02,11,16,06,7.90
2014,02,11,16,07,7.90
2014,02,11,16,08,7.80
2014,02,11,16,09,7.80
2014,02,11,16,10,7.80
2014,02,11,16,11,7.80
2014,02,11,16,12,7.80
2014,02,11,16,13,7.80
2014,02,11,16,14,7.80
2014,02,11,16,15,7.80
2014,02,11,16,16,7.80
2014,02,11,16,17,7.80
2014,02,11,16,18,7.80
2014,02,11,16,19,7.80
2014,02,11,16,20,7.80
2014,02,11,16,21,7.90
2014,02,11,16,22,7.90
2014,02,11,16,23,7.90
2014,02,11,16,24,7.90
2014,02,11,16,25,7.90
2014,02,11,16,26,7.90
2014,02,11,16,27,7.90
2014,02,11,16,28,7.90
2014,02,11,16,29,7.90
2014,02,11,16,30,7.90
2014,02,11,16,31,7.90
2014,02,11,16,32,7.90
2014,02,11,16,33,7.90
2014,02,11,16,34,7.90
2014,02,11,16,35,7.90
2014,02,11,16,36,7.80
2014,02,11,16,37,7.80
2014,02,11,16,38,7.80
2014,02,11,16,39,7.80
2014,02,11,16,40,7.70
2014,02,11,16,41,7.70
2014,02,11,16,42,7.60
2014,02,11,16,43,7.60
2014,02,11,16,44,7.50
2014,02,11,16,45,7.50
2014,02,11,16,46,7.40
2014,02,11,16,47,7.40
2014,02,11,16,48,7.30
2014,02,11,16,49,7.30
2014,02,11,16,50,7.20
2014,02,11,16,51,7.20
2014,02,11,16,52,7.20
2014,02,11,16,53,7.20
2014,02,11,16,54,7.20
2014,02,11,16,55,7.10
2014,02,11,16,56,7.10
2014,02,11,16,57,7.00
2014,02,11,16,58,7.00
2014,02,11,16,59,7.00
2014,02,11,17,00,6.90
2014,02,11,17,01,6.90
2014,02,11,17,02,6.90
2014,02,11,17,03,6.90
2014,02,11,17,04,6.80
2014,02,11,17,05,6.80
2014,02,11,17,06,6.80
2014,02,11,17,07,6.80
2014,02,11,17,08,6.70
2014,02,11,17,09,6.70
2014,02,11,17,10,6.70
2014,02,11,17,11,6.70
2014,02,11,17,12,6.70
2014,02,11,17,13,6.70
2014,02,11,17,14,6.70
2014,02,11,17,15,6.60
2014,02,11,17,16,6.60
2014,02,11,17,17,6.60
2014,02,11,17,18,6.60
2014,02,11,17,19,6.60
2014,02,11,17,20,6.60
2014,02,11,17,21,6.60
2014,02,11,17,22,6.60
2014,02,11,17,23,6.60
2014,02,11,17,24,6.60
2014,02,11,17,25,6.60
2014,02,11,17,26,6.60
2014,02,11,17,27,6.60
2014,02,11,17,28,6.60
2014,02,11,17,29,6.60
2014,02,11,17,30,6.70
2014,02,11,17,31,6.70
2014,02,11,17,32,6.70
2014,02,11,17,33,6.70
2014,02,11,17,34,6.80
2014,02,11,17,35,6.80
2014,02,11,17,36,6.80
2014,02,11,17,37,6.90
2014,02,11,17,38,6.90
2014,02,11,17,39,7.00
2014,02,11,17,40,7.00
2014,02,11,17,41,7.10
2014,02,11,17,42,7.10
2014,02,11,17,43,7.10
2014,02,11,17,44,7.20
2014,02,11,17,45,7.20
2014,02,11,17,46,7.20
2014,02,11,17,47,7.20
2014,02,11,17,48,7.20
2014,02,11,17,49,7.20
2014,02,11,17,50,7.20
2014,02,11,17,51,7.20
2014,02,11,17,52,7.20
2014,02,11,17,53,7.30
2014,02,11,17,54,7.30
2014,02,11,17,55,7.30
2014,02,11,17,56,7.30
2014,02,11,17,57,7.30
2014,02,11,17,58,7.30
2014,02,11,17,59,7.30
2014,02,11,18,00,7.30
2014,02,11,18,01,7.30
2014,02,11,18,02,7.30
2014,02,11,18,03,7.30
2014,02,11,18,04,7.30
2014,02,11,18,05,7.20
2014,02,11,18,06,7.20